Wind_Speed
112 115 120 122 127 133 135 138 139 143 145 145 133 125 105 86 71 57 46 36 28 20 14 8 2 7 9 14 23 33 43 53 67 70 69 69 66 60 59 58 60 61 50 50 45 36 32 32 33 28 30 30 30 34
117 117 120 126 133 136 137 139 141 143 146 136 128 116 94 79 63 52 41 31 22 16 10 4 2 4 6 10 26 39 48 57 64 71 67 65 63 58 61 56 55 54 51 49 46 46 41 43 43 39 35 33 36 37
119 120 125 130 135 138 140 141 142 143 143 131 121 101 85 70 56 46 36 26 17 12 5 2 2 3 5 10 22 34 48 61 65 74 68 67 60 50 60 56 54 54 48 51 48 49 44 42 41 38 39 42 39 39
120 125 130 133 139 141 140 142 140 142 137 127 111 91 77 62 51 42 31 22 14 8 4 5 4 4 3 7 13 27 43 58 67 71 68 64 60 53 56 58 56 58 52 42 43 45 45 49 42 41 43 42 44 46
125 129 133 136 139 139 138 141 139 135 129 115 97 82 68 54 45 36 26 17 8 3 4 6 6 5 3 6 9 23 38 49 66 76 72 65 57 57 50 50 49 46 46 47 48 50 50 47 44 46 45 42 37 38
129 135 140 138 139 141 138 139 135 129 115 100 86 74 60 49 40 30 21 10 6 3 5 6 5 4 4 8 9 13 35 46 51 63 72 69 62 55 60 52 48 47 38 36 37 38 38 37 39 40 40 40 44 46
136 138 138 138 138 139 139 132 130 121 103 88 77 64 52 44 34 23 15 7 2 2 3 5 4 3 5 8 11 16 30 41 44 54 69 65 71 67 60 55 51 53 52 49 49 48 48 48 48 49 49 48 47 46
139 141 133 138 138 138 131 129 123 108 90 78 69 54 45 38 28 17 11 4 1 3 4 5 5 4 7 10 13 19 29 36 43 48 57 65 72 67 68 67 61 61 56 53 53 54 54 54 49 49 50 48 47 42
140 137 135 135 135 130 128 124 111 93 80 71 57 47 39 32 21 15 9 3 2 4 3 5 5 6 9 12 15 20 28 32 36 44 49 56 59 62 64 67 67 67 65 64 61 56 56 60 60 57 46 42 42 38
137 134 133 134 129 125 125 113 93 80 71 60 48 40 34 26 19 14 8 3 2 2 3 3 7 8 10 15 19 23 26 32 36 37 40 43 47 46 49 58 63 61 63 62 59 59 61 58 51 38 30 30 33 34
130 131 129 126 124 123 112 92 79 70 61 49 40 34 29 21 16 12 9 7 4 3 2 2 6 10 12 15 22 27 30 32 36 38 42 45 47 48 49 50 53 58 59 55 51 54 47 35 34 35 30 31 33 34
129 125 123 120 120 105 90 78 68 59 51 40 34 29 24 19 14 11 9 7 7 6 4 3 4 8 10 14 21 26 32 35 38 38 40 42 43 45 46 47 47 44 43 41 36 37 33 28 28 31 32 32 33 34
121 119 117 117 102 86 76 66 57 49 42 33 28 25 22 19 16 14 12 10 7 6 6 5 3 6 8 12 17 21 26 31 31 31 33 36 37 33 31 31 33 32 32 31 31 33 31 30 31 30 31 33 34 33
116 117 113 98 83 72 64 55 47 41 34 27 24 22 18 17 15 14 13 12 10 9 7 7 6 6 7 9 14 16 22 26 31 33 31 28 26 27 29 28 31 30 28 29 33 31 31 31 31 30 28 26 28 26
114 101 88 78 68 60 53 45 40 33 27 23 21 18 15 14 14 14 14 15 14 13 10 9 8 8 9 10 12 14 18 19 20 21 22 21 19 20 22 22 21 22 26 28 27 27 27 25 23 23 25 25 23 21
89 79 71 64 56 49 43 38 33 27 23 20 18 16 14 14 14 15 15 15 15 14 12 12 11 10 11 12 13 14 12 14 14 13 12 16 17 16 15 16 17 19 19 18 18 18 20 23 24 25 23 22 21 20
73 67 60 53 45 41 37 32 27 23 19 17 15 14 13 13 14 14 15 15 14 13 13 14 13 12 13 14 15 15 12 15 15 16 18 18 18 17 16 17 18 19 19 19 20 22 25 26 25 24 23 23 22 23
63 55 50 43 39 35 30 25 21 18 16 14 14 13 12 12 13 15 15 15 14 14 14 14 13 14 15 15 16 16 15 14 15 18 20 19 19 20 19 19 20 20 19 20 21 20 20 21 22 23 25 24 25 24
51 47 41 37 33 29 24 20 16 14 13 13 12 11 9 8 9 12 13 14 15 15 15 13 13 13 14 15 17 17 16 15 16 17 19 20 20 20 21 21 20 19 19 20 21 22 24 25 26 26 25 25 24 21
44 38 34 30 27 23 18 14 12 12 12 11 11 11 11 11 13 13 14 15 14 15 14 12 11 11 12 13 15 16 17 17 16 15 16 17 19 20 20 19 19 19 20 20 20 19 20 20 20 18 17 18 20 24
35 30 27 24 21 17 13 11 10 11 12 11 12 13 12 12 10 11 12 12 12 12 11 10 10 13 14 13 13 16 15 15 16 15 15 15 16 16 16 17 17 17 15 14 12 12 13 13 14 17 20 23 25 24
27 23 21 19 16 13 11 10 10 12 12 12 12 13 12 10 10 12 12 11 11 12 12 11 12 12 11 13 14 14 13 13 14 15 15 16 18 20 21 19 17 17 16 17 20 21 23 23 24 24 25 23 21 18
21 19 18 15 12 11 10 11 12 12 12 12 12 12 11 11 11 11 11 11 11 10 10 10 11 11 11 11 9 10 11 11 11 11 14 16 18 20 22 24 24 25 27 28 29 29 27 26 23 20 19 17 15 11
16 15 13 11 11 10 10 11 13 13 14 13 13 12 12 12 11 11 11 11 9 8 10 10 10 10 13 13 13 12 12 13 15 16 18 21 23 25 28 30 31 32 33 32 30 26 22 19 17 17 18 16 13 11
12 11 11 10 10 10 11 12 13 14 14 14 14 13 12 12 12 13 11 9 7 9 10 10 11 14 16 15 16 16 19 21 22 23 24 25 27 28 29 30 32 33 31 27 22 16 15 16 16 16 15 15 15 15
10 10 9 9 9 10 11 12 12 13 15 16 16 15 14 12 12 13 10 9 10 11 12 13 17 18 18 20 21 23 24 24 25 28 28 27 26 25 27 30 31 27 22 19 15 14 15 14 13 13 15 17 19 21
8 7 7 8 8 9 10 11 12 12 13 14 14 13 12 12 10 7 8 9 11 13 15 18 20 21 22 24 25 25 26 28 30 30 29 27 25 25 27 27 23 20 19 16 16 15 15 15 17 18 19 20 21 24
7 7 8 8 8 9 9 10 10 11 11 12 13 14 14 12 10 12 13 13 13 15 18 21 23 24 25 27 26 27 29 30 30 29 27 25 24 22 22 22 21 18 19 19 17 18 18 17 18 19 22 26 29 32
6 6 7 7 7 7 8 9 10 11 13 13 12 12 10 11 12 12 12 13 15 18 21 24 26 27 28 28 28 28 31 32 31 29 26 25 22 21 21 20 20 20 19 19 19 19 21 22 24 25 28 32 35 38
4 4 4 5 6 7 7 6 7 6 6 7 10 11 11 12 12 14 14 14 16 19 23 26 28 29 30 30 30 29 32 33 31 29 26 25 24 23 21 20 21 21 21 21 22 23 26 28 30 32 35 37 40 43
3 3 3 4 5 5 5 6 6 7 9 10 11 11 12 13 13 14 15 16 18 20 23 27 29 30 32 32 32 31 31 33 33 31 28 27 27 26 25 24 25 25 25 27 28 30 31 33 36 38 41 43 44 46
3 2 2 2 3 4 4 5 5 6 7 7 8 10 12 12 12 14 15 16 19 20 23 27 30 31 32 33 33 32 32 32 34 34 32 30 30 29 29 28 29 29 30 32 33 35 36 38 41 42 45 48 49 51
4 4 3 2 2 3 4 6 6 6 6 7 8 8 9 10 13 14 15 16 17 20 23 27 29 31 32 33 34 34 33 32 33 33 33 33 32 32 32 32 33 33 34 36 37 39 41 43 46 48 49 51 50 49
Wind_Direction
311 314 316 321 325 326 328 328 328 330 332 332 331 333 334 334 334 336 334 329 328 328 322 312 235 186 191 172 171 172 173 171 173 172 177 185 193 188 187 191 196 190 187 193 190 197 207 208 204 210 220 232 234 232
315 317 321 325 326 325 324 325 331 330 330 330 332 335 334 335 336 338 334 332 333 331 322 312 188 204 197 183 173 178 177 177 176 177 183 190 195 190 188 191 191 194 193 196 196 210 215 213 212 220 226 232 237 242
318 322 322 324 324 323 325 329 328 329 330 332 333 334 335 335 338 338 335 336 336 334 327 45 107 158 179 185 186 186 178 181 182 181 188 193 193 193 195 199 196 202 209 202 207 208 217 219 221 226 229 235 239 242
318 320 319 322 323 326 326 327 328 329 329 331 333 334 335 334 339 337 337 339 335 342 41 89 83 97 171 178 196 195 187 185 186 185 191 194 195 197 203 206 213 208 211 219 219 212 219 224 225 234 242 243 245 246
316 317 319 320 322 324 326 327 328 328 328 330 332 334 333 336 337 337 339 343 345 18 77 98 113 113 129 172 198 199 195 187 190 191 197 196 202 200 200 206 212 218 220 215 215 222 224 231 233 235 247 255 252 252
312 316 318 321 322 323 324 325 326 326 328 330 332 333 331 336 335 337 339 344 351 42 99 101 112 102 135 164 179 193 196 194 196 197 203 203 201 207 212 213 215 224 228 230 227 221 219 229 240 246 252 256 262 264
309 313 318 317 321 321 324 324 324 325 326 328 331 330 330 334 332 335 335 341 18 83 116 108 113 146 166 165 174 180 199 193 199 205 201 204 205 207 211 215 218 222 225 227 226 230 239 242 250 255 262 265 272 266
310 312 315 318 317 321 321 322 323 324 324 327 327 327 329 330 327 330 329 336 130 156 191 189 159 162 184 186 180 179 193 197 199 204 208 211 212 213 215 219 222 225 228 233 235 240 246 251 254 258 268 271 272 267
308 312 313 316 317 320 320 320 321 321 322 324 324 324 326 323 319 321 312 301 177 160 178 211 215 193 191 194 197 194 192 202 207 208 210 213 216 219 223 225 227 228 231 233 238 243 247 257 263 262 266 266 261 264
307 310 312 314 318 318 318 317 318 319 321 320 321 322 322 316 311 304 286 250 203 203 194 220 223 215 211 203 202 202 200 200 203 210 212 210 214 220 225 228 231 234 236 238 242 246 249 255 259 255 255 259 258 258
307 308 310 315 315 316 314 315 316 318 317 316 317 319 315 308 303 297 282 272 266 250 232 247 215 209 206 205 202 204 205 207 206 209 212 214 215 217 220 225 227 232 236 239 241 249 246 243 246 246 248 245 244 244
306 308 311 313 313 313 313 314 315 314 311 313 314 314 305 293 278 263 262 263 269 275 271 272 212 197 199 202 201 206 209 210 213 216 217 219 222 226 227 231 235 239 238 241 234 231 232 233 236 239 240 239 242 244
307 310 310 312 312 311 313 314 312 310 308 310 309 307 295 290 270 264 259 252 260 273 275 278 261 217 208 203 200 204 210 218 222 223 222 221 227 231 235 238 238 236 235 233 230 231 230 231 234 240 239 238 241 249
308 308 310 309 310 311 312 310 310 307 306 306 305 296 290 276 258 250 248 249 255 258 266 271 273 241 217 200 198 206 205 207 211 216 222 229 235 239 240 234 232 230 228 228 228 227 226 230 235 239 241 243 245 248
306 308 308 308 309 311 309 309 306 304 303 303 299 287 276 262 249 246 245 247 251 254 256 256 258 246 231 211 202 202 201 201 201 198 201 202 203 208 213 208 212 221 227 228 229 229 228 228 227 225 232 236 237 236
307 308 309 309 309 308 309 305 301 301 301 301 286 273 264 251 242 241 241 245 248 250 248 248 244 236 233 219 217 218 207 200 202 201 179 178 182 190 190 193 194 203 212 213 214 218 219 222 225 228 231 232 236 239
307 308 309 307 309 309 306 302 299 299 298 289 273 261 246 244 241 244 245 246 245 242 240 235 234 228 226 222 221 224 212 210 199 188 192 194 191 193 197 202 206 210 215 221 222 221 220 223 225 226 226 228 233 235
307 308 305 307 309 307 303 302 301 298 289 274 260 244 236 241 239 238 241 241 243 241 238 236 229 222 218 222 226 232 227 219 214 210 212 209 202 204 206 206 211 215 219 223 226 228 231 233 234 233 232 232 230 229
305 304 305 307 307 304 301 302 298 288 272 259 244 233 226 230 242 239 240 239 239 242 242 236 231 226 218 216 220 229 236 235 227 222 221 220 218 215 216 218 219 221 225 228 231 233 236 235 235 233 230 223 220 215
302 301 304 304 303 301 299 296 287 270 257 246 226 222 217 218 221 225 230 232 235 238 240 235 229 228 221 216 218 224 230 234 236 232 229 231 228 225 223 222 224 226 229 230 229 229 232 230 226 220 209 202 196 181
298 301 301 301 299 298 294 284 269 252 241 228 220 222 218 220 223 226 233 237 234 234 234 226 224 226 229 234 231 231 234 234 235 233 230 222 215 211 210 209 211 211 212 210 198 190 191 182 177 172 168 165 167 171
299 299 297 296 294 289 280 266 249 241 231 224 222 220 222 216 212 218 221 227 225 226 229 225 224 228 221 220 220 217 217 221 223 221 218 207 195 192 190 187 180 174 168 159 150 149 144 142 147 152 155 160 167 176
298 295 292 288 282 276 263 250 235 234 226 222 221 220 222 222 226 229 229 229 226 225 223 217 216 216 215 206 193 192 192 197 201 198 190 187 184 176 167 159 154 150 147 146 146 143 143 146 150 156 165 170 173 189
296 290 283 277 268 258 249 240 231 226 219 218 220 220 222 226 235 235 233 234 226 221 222 213 207 207 190 168 168 171 170 170 163 159 158 158 159 156 154 154 152 153 153 151 151 152 157 165 171 176 179 189 203 224
293 285 277 267 256 247 243 236 229 222 216 214 215 218 222 228 230 232 231 224 215 216 217 198 198 184 164 164 163 159 158 156 152 151 150 151 152 156 156 153 157 158 156 160 162 169 174 176 185 195 203 219 235 248
290 285 277 265 252 239 237 232 230 223 218 216 217 225 230 235 237 235 226 213 203 203 196 185 178 164 165 163 159 160 159 154 152 149 148 149 152 155 163 167 167 166 166 170 179 183 188 199 211 227 241 253 263 274
277 269 261 257 248 240 232 229 226 222 220 220 223 227 230 237 243 237 213 206 203 194 187 182 171 169 168 166 165 167 162 159 159 159 158 161 164 168 172 177 181 181 186 193 206 212 221 231 240 251 262 272 279 284
259 249 243 242 238 232 228 223 219 217 213 214 217 220 224 226 214 208 204 200 196 194 189 182 176 175 174 173 173 174 168 168 170 170 170 172 175 178 183 188 193 197 204 215 225 233 241 248 255 264 272 279 282 286
250 246 241 240 237 235 229 226 220 213 214 218 220 222 223 219 217 217 213 207 197 193 193 187 183 182 180 180 181 179 176 178 181 183 186 185 186 192 197 203 209 217 224 233 243 252 259 265 269 274 279 283 287 292
251 244 229 215 210 211 217 225 235 221 213 219 223 221 215 212 208 206 207 209 208 200 197 192 188 187 186 186 186 188 188 188 191 193 196 203 206 207 210 217 226 233 241 249 257 263 269 275 278 280 284 288 292 294
237 216 218 212 218 228 225 208 213 223 219 216 220 222 221 219 219 217 209 203 201 204 203 197 194 193 192 192 193 194 196 200 201 202 206 212 218 223 227 232 240 247 254 262 267 272 276 280 283 287 290 292 296 301
279 267 260 234 222 218 209 209 215 216 219 218 220 223 226 223 218 221 214 210 207 201 201 203 200 199 198 199 200 201 204 207 211 215 217 222 229 235 240 246 251 257 263 267 271 275 280 284 288 291 295 299 301 302
301 291 272 244 228 217 213 209 211 213 210 209 213 219 222 219 215 217 213 214 213 207 203 205 206 204 204 205 208 210 212 214 216 220 225 231 237 243 248 253 257 262 266 271 276 281 284 287 291 294 296 298 301 303
Height
10594 10581 10569 10554 10537 10520 10504 10484 10465 10446 10421 10402 10377 10355 10334 10318 10303 10290 10280 10272 10265 10260 10257 10256 10255 10255 10257 10259 10265 10270 10276 10282 10290 10302 10316 10325 10333 10347 10357 10364 10371 10379 10387 10397 10407 10415 10423 10429 10435 10441 10446 10450 10455 10459
10576 10562 10550 10534 10519 10503 10485 10466 10448 10426 10406 10382 10363 10344 10324 10309 10296 10285 10276 10269 10262 10258 10257 10256 10254 10257 10259 10262 10264 10269 10276 10284 10293 10306 10316 10323 10333 10346 10355 10363 10370 10377 10386 10398 10406 10414 10419 10424 10430 10436 10443 10446 10449 10453
10555 10542 10530 10517 10502 10485 10466 10451 10431 10412 10390 10369 10350 10332 10316 10302 10291 10282 10274 10266 10261 10258 10257 10256 10257 10259 10261 10264 10268 10271 10278 10287 10298 10308 10315 10323 10335 10344 10353 10360 10370 10376 10383 10392 10401 10408 10414 10418 10424 10429 10434 10440 10444 10447
10537 10526 10512 10499 10482 10467 10450 10432 10414 10397 10375 10355 10339 10324 10310 10297 10286 10279 10272 10266 10261 10259 10258 10259 10260 10262 10264 10267 10271 10276 10282 10288 10300 10310 10316 10325 10335 10343 10351 10358 10365 10373 10380 10389 10396 10403 10409 10412 10415 10421 10426 10431 10434 10437
10518 10507 10497 10483 10467 10451 10434 10418 10401 10381 10361 10344 10330 10316 10304 10293 10284 10278 10271 10266 10262 10260 10260 10261 10263 10265 10266 10269 10273 10279 10284 10292 10299 10309 10311 10326 10334 10342 10349 10357 10365 10369 10375 10382 10388 10396 10404 10408 10410 10412 10415 10420 10424 10426
10498 10489 10479 10465 10450 10435 10420 10403 10385 10367 10351 10335 10323 10311 10299 10289 10283 10277 10272 10267 10264 10262 10263 10264 10265 10266 10269 10271 10274 10279 10286 10293 10298 10305 10313 10324 10332 10340 10348 10355 10363 10367 10371 10376 10382 10388 10392 10398 10402 10406 10409 10412 10414 10415
10482 10471 10465 10447 10435 10419 10406 10388 10370 10355 10341 10327 10317 10306 10295 10286 10281 10276 10272 10268 10266 10265 10265 10266 10268 10269 10271 10273 10275 10280 10285 10292 10298 10305 10314 10320 10330 10336 10341 10350 10356 10361 10367 10372 10377 10380 10385 10392 10396 10398 10400 10403 10404 10406
10464 10454 10445 10432 10418 10405 10389 10373 10357 10343 10330 10318 10309 10300 10290 10283 10279 10273 10271 10269 10267 10265 10264 10266 10268 10269 10271 10274 10277 10280 10284 10290 10294 10300 10308 10316 10323 10328 10337 10341 10348 10355 10361 10365 10369 10373 10377 10382 10385 10388 10390 10392 10394 10394
10445 10440 10427 10416 10401 10389 10373 10357 10343 10330 10319 10309 10301 10292 10285 10280 10274 10271 10269 10268 10267 10266 10265 10266 10267 10268 10269 10272 10276 10279 10283 10288 10293 10297 10303 10311 10317 10323 10329 10334 10339 10348 10351 10357 10361 10365 10369 10372 10376 10379 10380 10382 10384 10385
10432 10422 10410 10396 10384 10370 10356 10341 10328 10317 10307 10300 10292 10285 10280 10275 10270 10268 10266 10266 10266 10266 10266 10265 10264 10266 10268 10270 10273 10277 10281 10285 10290 10296 10301 10306 10313 10317 10320 10326 10332 10337 10342 10348 10353 10357 10362 10366 10366 10369 10371 10373 10375 10378
10414 10403 10390 10380 10363 10350 10337 10325 10313 10303 10296 10290 10283 10277 10274 10270 10266 10265 10264 10264 10264 10264 10264 10264 10264 10264 10265 10267 10270 10273 10277 10282 10285 10290 10295 10299 10304 10308 10312 10315 10320 10324 10330 10336 10345 10348 10354 10356 10359 10362 10365 10367 10368 10370
10394 10382 10371 10358 10344 10330 10319 10308 10298 10290 10285 10280 10274 10270 10267 10265 10262 10261 10261 10261 10262 10262 10262 10262 10262 10262 10263 10265 10266 10269 10272 10276 10279 10284 10288 10292 10297 10300 10307 10310 10314 10318 10326 10330 10336 10341 10345 10348 10352 10355 10357 10359 10361 10364
10373 10363 10351 10337 10323 10311 10301 10293 10284 10279 10274 10270 10266 10263 10261 10260 10257 10257 10257 10258 10259 10259 10259 10259 10260 10260 10261 10262 10264 10265 10268 10270 10274 10278 10282 10287 10290 10297 10302 10307 10309 10314 10318 10323 10328 10331 10337 10341 10344 10348 10350 10352 10355 10357
10352 10340 10330 10316 10303 10293 10286 10279 10272 10268 10264 10260 10257 10256 10255 10255 10253 10253 10254 10255 10256 10257 10258 10258 10258 10258 10259 10260 10261 10262 10264 10267 10270 10274 10278 10282 10287 10292 10295 10300 10303 10308 10313 10317 10318 10324 10329 10334 10337 10340 10343 10346 10349 10351
10328 10319 10308 10296 10286 10277 10272 10265 10261 10258 10254 10252 10250 10250 10250 10249 10249 10250 10251 10252 10253 10254 10255 10256 10256 10256 10258 10259 10260 10261 10263 10266 10270 10272 10274 10280 10285 10287 10289 10293 10299 10305 10306 10309 10314 10319 10324 10328 10330 10334 10337 10339 10342 10345
10306 10298 10288 10279 10270 10264 10259 10255 10252 10248 10245 10244 10244 10244 10244 10244 10244 10245 10247 10248 10250 10251 10252 10253 10253 10254 10256 10257 10258 10259 10263 10266 10268 10271 10275 10277 10280 10283 10287 10290 10294 10298 10300 10304 10309 10314 10318 10321 10324 10328 10331 10334 10335 10337
10287 10279 10271 10265 10258 10253 10249 10246 10242 10239 10238 10238 10238 10238 10238 10239 10240 10241 10242 10244 10246 10247 10249 10250 10251 10252 10254 10255 10255 10257 10261 10263 10266 10269 10272 10274 10277 10281 10284 10287 10290 10293 10297 10301 10305 10308 10311 10315 10318 10321 10324 10326 10329 10330
10271 10264 10259 10252 10247 10243 10240 10236 10233 10232 10232 10232 10233 10234 10234 10235 10236 10237 10238 10240 10242 10243 10245 10246 10248 10249 10251 10253 10254 10255 10258 10261 10263 10266 10269 10272 10275 10278 10281 10284 10286 10290 10294 10297 10300 10303 10306 10309 10311 10314 10316 10318 10321 10324
10258 10252 10246 10241 10238 10235 10231 10229 10227 10227 10227 10228 10229 10230 10231 10232 10233 10234 10235 10237 10238 10239 10241 10243 10244 10246 10248 10249 10251 10253 10255 10257 10260 10262 10265 10268 10271 10274 10277 10280 10283 10287 10290 10292 10295 10297 10299 10300 10303 10305 10308 10312 10315 10319
10246 10241 10236 10232 10230 10227 10224 10223 10223 10223 10223 10224 10225 10226 10227 10228 10229 10230 10232 10233 10235 10236 10237 10239 10241 10243 10244 10246 10248 10250 10251 10253 10254 10257 10260 10263 10266 10269 10273 10276 10279 10281 10284 10286 10288 10291 10292 10294 10297 10300 10304 10309 10313 10318
10235 10230 10227 10225 10223 10221 10219 10219 10219 10220 10220 10221 10222 10222 10223 10225 10226 10228 10229 10231 10232 10233 10235 10236 10238 10239 10240 10242 10244 10246 10248 10250 10251 10253 10255 10258 10261 10264 10267 10271 10273 10276 10279 10282 10285 10287 10289 10292 10296 10299 10303 10309 10314 10319
10224 10221 10219 10218 10217 10215 10215 10215 10216 10217 10217 10218 10219 10220 10221 10223 10224 10224 10226 10228 10230 10230 10231 10233 10234 10235 10237 10238 10240 10242 10243 10245 10246 10248 10251 10254 10257 10259 10262 10266 10271 10274 10278 10282 10285 10288 10291 10295 10299 10303 10308 10313 10317 10321
10216 10214 10213 10212 10211 10211 10212 10212 10213 10213 10215 10216 10217 10218 10220 10221 10221 10222 10224 10225 10226 10227 10229 10230 10231 10232 10234 10236 10238 10240 10241 10242 10244 10246 10249 10252 10255 10259 10263 10266 10271 10276 10280 10285 10289 10293 10296 10301 10305 10308 10312 10315 10318 10321
10209 10208 10207 10207 10207 10207 10208 10209 10210 10211 10212 10214 10215 10216 10217 10218 10219 10221 10222 10223 10224 10225 10226 10228 10229 10231 10232 10234 10236 10239 10241 10243 10245 10247 10250 10253 10258 10261 10265 10270 10274 10279 10284 10288 10292 10296 10300 10303 10306 10309 10312 10315 10317 10319
10204 10203 10203 10203 10203 10204 10205 10206 10207 10208 10210 10212 10213 10214 10215 10216 10217 10218 10219 10221 10223 10223 10224 10226 10228 10230 10232 10234 10237 10240 10243 10246 10248 10251 10254 10258 10262 10267 10271 10276 10280 10284 10288 10292 10296 10299 10301 10304 10306 10309 10311 10313 10314 10315
10200 10200 10200 10200 10200 10201 10202 10203 10204 10206 10207 10209 10210 10211 10212 10213 10215 10216 10217 10219 10220 10221 10223 10226 10228 10230 10233 10236 10239 10242 10246 10249 10253 10257 10260 10265 10269 10273 10277 10281 10285 10288 10290 10293 10296 10299 10301 10303 10306 10307 10309 10309 10309 10309
10197 10197 10197 10197 10198 10199 10199 10200 10201 10203 10204 10206 10207 10209 10210 10211 10213 10215 10216 10217 10219 10221 10223 10225 10228 10231 10235 10238 10242 10246 10249 10253 10257 10261 10264 10268 10272 10275 10279 10283 10286 10289 10291 10294 10296 10298 10300 10301 10303 10304 10304 10303 10303 10302
10195 10195 10195 10195 10195 10196 10197 10197 10199 10200 10202 10203 10204 10205 10207 10209 10211 10212 10213 10215 10217 10220 10222 10225 10228 10231 10235 10240 10244 10248 10252 10256 10260 10264 10267 10270 10274 10278 10281 10284 10286 10288 10290 10292 10294 10295 10296 10297 10298 10299 10298 10297 10295 10293
10194 10194 10194 10194 10194 10194 10195 10195 10196 10197 10198 10200 10201 10203 10205 10207 10208 10210 10212 10213 10215 10218 10221 10224 10228 10232 10236 10240 10244 10249 10252 10256 10261 10265 10268 10271 10273 10276 10280 10282 10284 10286 10288 10289 10291 10292 10292 10292 10292 10292 10291 10289 10286 10283
10193 10193 10193 10192 10192 10192 10192 10193 10194 10196 10197 10198 10200 10201 10202 10204 10205 10207 10209 10212 10214 10217 10219 10223 10227 10231 10235 10239 10244 10248 10252 10256 10260 10264 10267 10269 10271 10275 10278 10279 10281 10282 10284 10285 10286 10286 10286 10285 10284 10282 10281 10279 10277 10273
10193 10192 10191 10192 10192 10191 10192 10192 10193 10194 10194 10195 10197 10198 10199 10200 10203 10205 10206 10208 10210 10213 10217 10221 10225 10229 10233 10238 10242 10246 10250 10254 10257 10261 10264 10266 10268 10271 10274 10275 10276 10278 10279 10279 10280 10279 10278 10276 10274 10272 10269 10266 10265 10261
10192 10191 10191 10191 10191 10191 10191 10192 10192 10193 10193 10193 10194 10195 10195 10198 10200 10201 10203 10205 10207 10209 10214 10218 10222 10227 10231 10235 10239 10243 10247 10251 10254 10257 10260 10262 10264 10266 10268 10270 10271 10272 10272 10272 10271 10270 10269 10267 10263 10261 10258 10254 10251 10247
10191 10190 10190 10191 10191 10191 10191 10191 10191 10191 10192 10192 10192 10193 10194 10195 10197 10198 10200 10202 10205 10208 10210 10214 10219 10224 10228 10232 10236 10239 10243 10246 10250 10253 10255 10257 10259 10260 10261 10262 10263 10264 10264 10263 10262 10261 10259 10256 10253 10250 10246 10242 10238 10234